Madison, SD

4:49 PM CDT on April 30, 2017 (GMT -0500)
Madison Municipal

Weather History for KMDS - December, 2011

Change the Weather History Date:

Tuesday, December 20, 2011

  Actual Average Record
Temperature  
Mean Temperature 20 °F -  
Max Temperature 35 °F 23 °F 39 °F (2016)
Min Temperature 6 °F 6 °F 5 °F (2012)
Degree Days  
Heating Degree Days 44    
Moisture  
Dew Point 17 °F    
Average Humidity 85    
Maximum Humidity 100    
Minimum Humidity 38    
Precipitation  
Precipitation 0.00 in - - ()
Sea Level Pressure  
Sea Level Pressure 29.90 in    
Wind  
Wind Speed 8 mph (SSW)    
Max Wind Speed 20 mph    
Max Gust Speed 24 mph    
Visibility 10 miles    
Events      
Averages and records for this station are not official NWS values.
T = Trace of Precipitation, MM = Missing Value Source: NWS Daily Summary

Daily Weather History Graph

Daily Weather History Graph

Search for Another Location

Airport or City:

Trip Planner

Search our weather history database for the weather conditions in past years. The results will help you decide how hot, cold, wet, or windy it might be!

Date:

Astronomy

Dec. 20, 2011 Rise Set
Actual Time 7:59 AM CST 4:52 PM CST
Civil Twilight 7:26 AM CST 5:25 PM CST
Nautical Twilight 6:49 AM CST 6:02 PM CST
Astronomical Twilight 6:14 AM CST 6:37 PM CST
Moon 3:17 AM CST (12/20) 1:33 PM CST (12/20)
Length of Visible Light 9h 59m
Length of Day
8h 53m
Waning Crescent, 21% of the Moon is Illuminated
Dec 20
Waning Crescent
Dec 24
New
Jan 1
First Quarter
Jan 9
Full
Jan 16
Last Quarter

Hourly Weather History & Observations

Time (CST) Temp. Windchill Dew Point Humidity Pressure Visibility Wind Dir Wind Speed Gust Speed Precip Events Conditions
12:30 AM 14.0 °F 8.2 °F 14.0 °F 100% 30.20 in 10.0 mi NW 3.5 mph - N/A   Clear
12:50 AM 14.0 °F - 14.0 °F 100% 30.20 in 10.0 mi Calm Calm - N/A   Clear
1:10 AM 12.2 °F - 12.2 °F 100% 30.19 in 10.0 mi Calm Calm - N/A   Clear
1:30 AM 10.4 °F - 10.4 °F 100% 30.19 in 10.0 mi Calm Calm - N/A   Clear
1:50 AM 12.2 °F - 12.2 °F 100% 30.19 in 10.0 mi Calm Calm - N/A   Clear
2:10 AM 12.2 °F 2.9 °F 12.2 °F 100% 30.19 in 10.0 mi SW 5.8 mph - N/A   Clear
2:30 AM 10.4 °F 2.2 °F 10.4 °F 100% 30.18 in 10.0 mi SSW 4.6 mph - N/A   Clear
2:50 AM 12.2 °F 6.1 °F 12.2 °F 100% 30.18 in 10.0 mi South 3.5 mph - N/A   Clear
3:10 AM 12.2 °F 4.3 °F 12.2 °F 100% 30.17 in 10.0 mi South 4.6 mph - N/A   Clear
3:30 AM 10.4 °F - 10.4 °F 100% 30.17 in 10.0 mi Calm Calm - N/A   Clear
3:50 AM 12.2 °F 6.1 °F 12.2 °F 100% 30.16 in 10.0 mi SSW 3.5 mph - N/A   Clear
4:10 AM 12.2 °F 6.1 °F 12.2 °F 100% 30.14 in 10.0 mi SSW 3.5 mph - N/A   Clear
4:30 AM 12.2 °F - 12.2 °F 100% 30.13 in 10.0 mi Calm Calm - N/A   Clear
4:50 AM 10.4 °F 0.8 °F 10.4 °F 100% 30.12 in 10.0 mi South 5.8 mph - N/A   Clear
5:10 AM 6.8 °F -5.9 °F 6.8 °F 100% 30.10 in 10.0 mi South 8.1 mph - N/A   Clear
5:30 AM 8.6 °F 2.0 °F 8.6 °F 100% 30.11 in 1.8 mi South 3.5 mph - N/A   Clear
6:30 AM 10.4 °F 0.8 °F 10.4 °F 100% 30.08 in 10.0 mi SSW 5.8 mph - N/A   Clear
6:50 AM 14.0 °F 5.1 °F 14.0 °F 100% 30.08 in 10.0 mi SSW 5.8 mph - N/A   Clear
7:10 AM 10.4 °F -0.4 °F 10.4 °F 100% 30.08 in 10.0 mi SSW 6.9 mph - N/A   Clear
7:50 AM 10.4 °F -1.5 °F 10.4 °F 100% 30.04 in 10.0 mi SSW 8.1 mph - N/A   Clear
8:10 AM 14.0 °F 2.9 °F 14.0 °F 100% 30.04 in 10.0 mi SW 8.1 mph - N/A   Clear
8:30 AM 14.0 °F 1.2 °F 14.0 °F 100% 30.03 in 10.0 mi SSW 10.4 mph - N/A   Clear
8:50 AM 15.8 °F 3.4 °F 15.8 °F 100% 30.03 in 10.0 mi SW 10.4 mph - N/A   Clear
9:30 AM 19.4 °F 6.6 °F 19.4 °F 100% 30.01 in 10.0 mi SSW 12.7 mph - N/A   Clear
9:50 AM 23.0 °F 10.1 °F 23.0 °F 100% 30.01 in 10.0 mi SSW 15.0 mph 19.6 mph N/A   Clear
10:10 AM 23.0 °F 9.6 °F 23.0 °F 100% 29.99 in 10.0 mi SW 16.1 mph - N/A   Clear
10:30 AM 24.8 °F 11.5 °F 24.8 °F 100% 29.98 in 10.0 mi SSW 17.3 mph 21.9 mph N/A   Clear
10:50 AM 24.8 °F 10.7 °F 24.8 °F 100% 29.97 in 10.0 mi SW 19.6 mph 24.2 mph N/A   Clear
11:10 AM 26.6 °F 13.4 °F 26.6 °F 100% 29.95 in 10.0 mi SW 18.4 mph - N/A   Clear
11:30 AM 26.6 °F 13.4 °F 26.6 °F 100% 29.93 in 10.0 mi SSW 18.4 mph - N/A   Clear
11:50 AM 28.4 °F 16.6 °F 24.8 °F 86% 29.92 in 10.0 mi SSW 16.1 mph - N/A   Clear
12:10 PM 28.4 °F 16.2 °F 24.8 °F 86% 29.90 in 10.0 mi SSW 17.3 mph - N/A   Clear
12:30 PM 30.2 °F 19.8 °F 23.0 °F 75% 29.89 in 10.0 mi SSW 13.8 mph - N/A   Clear
12:50 PM 32.0 °F 23.0 °F 23.0 °F 69% 29.88 in 10.0 mi SSW 11.5 mph - N/A   Clear
1:10 PM 32.0 °F 21.2 °F 23.0 °F 69% 29.86 in 10.0 mi SSW 16.1 mph - N/A   Clear
1:30 PM 32.0 °F 21.2 °F 19.4 °F 60% 29.84 in 10.0 mi SSW 16.1 mph - N/A   Clear
1:50 PM 32.0 °F 20.8 °F 17.6 °F 55% 29.83 in 10.0 mi SSW 17.3 mph 21.9 mph N/A   Clear
2:10 PM 33.8 °F 23.9 °F 15.8 °F 48% 29.82 in 10.0 mi SW 15.0 mph 21.9 mph N/A   Clear
2:50 PM 35.6 °F 26.2 °F 14.0 °F 41% 29.77 in 10.0 mi SSW 15.0 mph - N/A   Clear
3:10 PM 35.6 °F 26.2 °F 14.0 °F 41% 29.76 in 10.0 mi SSW 15.0 mph 21.9 mph N/A   Clear
3:30 PM 35.6 °F 26.6 °F 12.2 °F 38% 29.76 in 10.0 mi SSW 13.8 mph - N/A   Clear
3:50 PM 35.6 °F 27.1 °F 12.2 °F 38% 29.75 in 10.0 mi South 12.7 mph - N/A   Clear
4:10 PM 33.8 °F 23.9 °F 12.2 °F 41% 29.75 in 10.0 mi SSW 15.0 mph - N/A   Clear
4:30 PM 32.0 °F 22.1 °F 14.0 °F 48% 29.74 in 10.0 mi South 13.8 mph - N/A   Clear
4:50 PM 30.2 °F 19.8 °F 15.8 °F 55% 29.73 in 10.0 mi South 13.8 mph - N/A   Clear
5:10 PM 28.4 °F 17.5 °F 17.6 °F 64% 29.72 in 10.0 mi South 13.8 mph - N/A   Clear
5:30 PM 26.6 °F 16.2 °F 17.6 °F 69% 29.72 in 10.0 mi South 11.5 mph - N/A   Clear
5:50 PM 24.8 °F 13.4 °F 17.6 °F 74% 29.71 in 10.0 mi South 12.7 mph - N/A   Clear
6:10 PM 24.8 °F 14.6 °F 17.6 °F 74% 29.71 in 10.0 mi South 10.4 mph - N/A   Clear
6:30 PM 23.0 °F 12.4 °F 19.4 °F 86% 29.70 in 10.0 mi South 10.4 mph - N/A   Clear
6:50 PM 23.0 °F 11.7 °F 19.4 °F 86% 29.70 in 10.0 mi SSW 11.5 mph - N/A   Clear
7:10 PM 23.0 °F 11.7 °F 19.4 °F 86% 29.71 in 10.0 mi South 11.5 mph - N/A   Clear
7:30 PM 24.8 °F 12.9 °F 19.4 °F 80% 29.70 in 10.0 mi SSW 13.8 mph - N/A   Clear
7:50 PM 24.8 °F 12.9 °F 17.6 °F 74% 29.70 in 10.0 mi SSW 13.8 mph - N/A   Clear
8:10 PM 24.8 °F 12.4 °F 17.6 °F 74% 29.69 in 10.0 mi South 15.0 mph - N/A   Clear
8:30 PM 24.8 °F 14.0 °F 17.6 °F 74% 29.69 in 10.0 mi SSW 11.5 mph - N/A   Clear
8:50 PM 23.0 °F 11.1 °F 19.4 °F 86% 29.68 in 10.0 mi South 12.7 mph - N/A   Clear
9:10 PM 23.0 °F 12.4 °F 19.4 °F 86% 29.68 in 10.0 mi SSW 10.4 mph - N/A   Clear
9:30 PM 23.0 °F 11.7 °F 19.4 °F 86% 29.67 in 10.0 mi South 11.5 mph - N/A   Clear
9:50 PM 23.0 °F 12.4 °F 19.4 °F 86% 29.67 in 10.0 mi South 10.4 mph - N/A   Clear
10:10 PM 21.2 °F 9.5 °F 19.4 °F 93% 29.66 in 10.0 mi South 11.5 mph - N/A   Clear
10:30 PM 23.0 °F 13.9 °F 17.6 °F 80% 29.66 in 10.0 mi SSE 8.1 mph - N/A   Clear
11:10 PM 19.4 °F 7.9 °F 17.6 °F 93% 29.64 in 10.0 mi South 10.4 mph - N/A   Clear
11:30 PM 17.6 °F 7.3 °F 17.6 °F 100% 29.64 in 10.0 mi South 8.1 mph - N/A   Clear
11:50 PM 17.6 °F 5.7 °F 17.6 °F 100% 29.62 in 10.0 mi South 10.4 mph - N/A   Clear